Time,TemperatureF,DewpointF,PressureIn,WindDirection,WindDirectionDegrees,WindSpeedMPH,WindSpeedGustMPH,Humidity,HourlyPrecipIn,Conditions,Clouds,dailyrainin,SoftwareType,DateUTC
2013-09-17 00:00:00,55.4,50.7,30.27,NNW,348,3.0,5.0,84,0.00,,---,0.00,VWS V14.01,2013-09-17 04:00:00,
2013-09-17 00:01:00,55.3,50.6,30.27,NNE,15,1.0,5.0,84,0.00,,---,0.00,VWS V14.01,2013-09-17 04:01:00,
2013-09-17 00:02:00,55.3,50.6,30.27,North,351,0.0,5.0,84,0.00,,---,0.00,VWS V14.01,2013-09-17 04:02:00,
2013-09-17 00:10:00,58.0,51.9,30.25,NNE,19,1.0,5.0,80,0.00,,---,0.39,VWS V14.01,2013-09-17 04:10:00,
2013-09-17 00:20:00,57.4,52.0,30.26,NNE,15,0.0,5.0,82,0.00,,---,0.39,VWS V14.01,2013-09-17 04:20:00,
2013-09-17 00:30:00,56.7,51.6,30.26,NE,49,2.0,3.0,83,0.00,,---,0.39,VWS V14.01,2013-09-17 04:30:00,
2013-09-17 00:40:00,56.3,51.2,30.27,NNW,327,0.0,4.0,83,0.00,,---,0.39,VWS V14.01,2013-09-17 04:40:00,
2013-09-17 00:50:00,55.8,51.0,30.27,NW,306,1.0,5.0,84,0.00,,---,0.39,VWS V14.01,2013-09-17 04:50:00,
2013-09-17 01:00:00,55.4,50.7,30.27,NNW,348,3.0,5.0,84,0.00,,---,0.00,VWS V14.01,2013-09-17 05:00:00,
2013-09-17 04:05:00,48.5,46.9,30.29,NNW,333,0.0,0.0,94,0.00,,---,0.00,VWS V14.01,2013-09-17 08:05:00,
2013-09-17 04:10:00,48.6,47.2,30.29,NNW,333,0.0,0.0,95,0.00,,---,0.00,VWS V14.01,2013-09-17 08:10:00,
2013-09-17 04:15:00,48.5,46.9,30.29,NNW,333,0.0,0.0,94,0.00,,---,0.00,VWS V14.01,2013-09-17 08:15:00,
2013-09-17 04:20:00,48.1,46.5,30.30,NNW,333,0.0,0.0,94,0.00,,---,0.00,VWS V14.01,2013-09-17 08:20:00,
2013-09-17 04:25:00,47.7,46.1,30.29,NNW,333,0.0,0.0,94,0.00,,---,0.00,VWS V14.01,2013-09-17 08:25:00,
2013-09-17 04:30:00,47.5,45.9,30.30,NNW,333,0.0,0.0,94,0.00,,---,0.00,VWS V14.01,2013-09-17 08:30:00,
2013-09-17 04:35:00,47.2,45.6,30.30,NNW,333,0.0,0.0,94,0.00,,---,0.00,VWS V14.01,2013-09-17 08:35:00,
2013-09-17 04:40:00,47.2,45.8,30.30,NNW,333,0.0,0.0,95,0.00,,---,0.00,VWS V14.01,2013-09-17 08:40:00,
2013-09-17 04:45:00,47.2,45.8,30.30,NNW,333,0.0,0.0,95,0.00,,---,0.00,VWS V14.01,2013-09-17 08:45:00,
2013-09-17 04:50:00,47.4,46.0,30.30,NNW,332,0.0,0.0,95,0.00,,---,0.00,VWS V14.01,2013-09-17 08:50:00,
2013-09-17 04:55:00,47.4,46.0,30.30,NNW,332,0.0,0.0,95,0.00,,---,0.00,VWS V14.01,2013-09-17 08:55:00,
2013-09-17 05:00:00,47.1,45.7,30.30,NW,323,0.0,0.0,95,0.00,,---,0.00,VWS V14.01,2013-09-17 09:00:00,
2013-09-17 05:05:00,46.9,45.5,30.30,NW,323,0.0,0.0,95,0.00,,---,0.00,VWS V14.01,2013-09-17 09:05:00,
2013-09-17 05:10:00,47.1,45.7,30.30,NNW,337,0.0,0.0,95,0.00,,---,0.00,VWS V14.01,2013-09-17 09:10:00,
2013-09-17 05:15:00,47.3,46.2,30.30,NE,36,0.0,0.0,96,0.00,,---,0.00,VWS V14.01,2013-09-17 09:15:00,
2013-09-17 05:20:00,47.1,45.7,30.30,NE,36,0.0,0.0,95,0.00,,---,0.00,VWS V14.01,2013-09-17 09:20:00,
2013-09-17 05:25:00,47.3,46.2,30.29,NNE,28,0.0,1.0,96,0.00,,---,0.00,VWS V14.01,2013-09-17 09:25:00,
2013-09-17 05:30:00,47.4,46.3,30.29,NNE,28,0.0,0.0,96,0.00,,---,0.00,VWS V14.01,2013-09-17 09:30:00,
2013-09-17 05:35:00,47.2,45.8,30.29,NNE,24,0.0,0.0,95,0.00,,---,0.00,VWS V14.01,2013-09-17 09:35:00,
2013-09-17 05:40:00,47.4,46.3,30.29,NNW,331,0.0,0.0,96,0.00,,---,0.00,VWS V14.01,2013-09-17 09:40:00,
2013-09-17 05:45:00,47.6,46.5,30.30,ENE,69,0.0,0.0,96,0.00,,---,0.00,VWS V14.01,2013-09-17 09:45:00,
2013-09-17 05:50:00,47.6,46.5,30.30,WNW,284,0.0,0.0,96,0.00,,---,0.00,VWS V14.01,2013-09-17 09:50:00,
2013-09-17 05:55:00,47.3,45.9,30.30,WNW,284,0.0,0.0,95,0.00,,---,0.00,VWS V14.01,2013-09-17 09:55:00,
2013-09-17 06:00:00,47.3,46.2,30.31,NNW,342,0.0,0.0,96,0.00,,---,0.00,VWS V14.01,2013-09-17 10:00:00,
2013-09-17 06:05:00,47.3,46.2,30.30,NW,325,0.0,0.0,96,0.00,,---,0.00,VWS V14.01,2013-09-17 10:05:00,
2013-09-17 06:10:00,47.2,46.1,30.30,NW,324,0.0,0.0,96,0.00,,---,0.00,VWS V14.01,2013-09-17 10:10:00,
2013-09-17 06:15:00,47.1,45.7,30.31,NW,325,0.0,0.0,95,0.00,,---,0.00,VWS V14.01,2013-09-17 10:15:00,
2013-09-17 06:20:00,46.9,45.5,30.31,West,263,0.0,0.0,95,0.00,,---,0.00,VWS V14.01,2013-09-17 10:20:00,
2013-09-17 06:25:00,46.8,45.5,30.31,West,265,0.0,0.0,95,0.00,,---,0.00,VWS V14.01,2013-09-17 10:25:00,
2013-09-17 06:30:00,46.8,45.7,30.31,West,265,0.0,0.0,96,0.00,,---,0.00,VWS V14.01,2013-09-17 10:30:00,
2013-09-17 06:35:00,46.7,45.3,30.31,West,265,0.0,0.0,95,0.00,,---,0.00,VWS V14.01,2013-09-17 10:35:00,
2013-09-17 06:40:00,46.9,45.8,30.32,NNE,26,0.0,0.0,96,0.00,,---,0.00,VWS V14.01,2013-09-17 10:40:00,
2013-09-17 06:45:00,47.2,46.1,30.32,NNE,26,0.0,1.0,96,0.00,,---,0.00,VWS V14.01,2013-09-17 10:45:00,
2013-09-17 06:50:00,47.3,46.2,30.32,NNW,348,0.0,1.0,96,0.00,,---,0.00,VWS V14.01,2013-09-17 10:50:00,
2013-09-17 06:55:00,47.4,46.3,30.32,NNW,347,1.0,2.0,96,0.00,,---,0.00,VWS V14.01,2013-09-17 10:55:00,
2013-09-17 07:00:00,47.4,46.3,30.33,WNW,303,0.0,0.0,96,0.00,,---,0.00,VWS V14.01,2013-09-17 11:00:00,
2013-09-17 07:05:00,47.5,46.4,30.33,NNW,331,0.0,0.0,96,0.00,,---,0.00,VWS V14.01,2013-09-17 11:05:00,
2013-09-17 07:10:00,47.6,46.5,30.33,North,349,0.0,0.0,96,0.00,,---,0.00,VWS V14.01,2013-09-17 11:10:00,
2013-09-17 07:15:00,47.6,46.5,30.34,NNW,348,0.0,0.0,96,0.00,,---,0.00,VWS V14.01,2013-09-17 11:15:00,
2013-09-17 07:20:00,47.6,46.5,30.34,NNW,342,0.0,0.0,96,0.00,,---,0.00,VWS V14.01,2013-09-17 11:20:00,
2013-09-17 07:21:00,47.6,46.5,30.34,NNE,19,0.0,0.0,96,0.00,,---,0.00,VWS V14.01,2013-09-17 11:21:00,
2013-09-17 07:26:00,47.5,46.4,30.34,NNW,337,0.0,0.0,96,0.00,,---,0.00,VWS V14.01,2013-09-17 11:26:00,
2013-09-17 07:30:00,47.5,46.4,30.34,NNW,330,0.0,0.0,96,0.00,,---,0.00,VWS V14.01,2013-09-17 11:30:00,
2013-09-17 07:31:00,47.5,46.4,30.34,NNW,330,0.0,0.0,96,0.00,,---,0.00,VWS V14.01,2013-09-17 11:31:00,
2013-09-17 07:36:00,47.5,46.4,30.34,SSE,150,0.0,1.0,96,0.00,,---,0.00,VWS V14.01,2013-09-17 11:36:00,
2013-09-17 07:40:00,47.5,46.4,30.34,ESE,103,0.0,1.0,96,0.00,,---,0.00,VWS V14.01,2013-09-17 11:40:00,
2013-09-17 07:41:00,47.5,46.4,30.34,NE,35,0.0,0.0,96,0.00,,---,0.00,VWS V14.01,2013-09-17 11:41:00,
2013-09-17 07:46:00,47.5,46.4,30.34,NE,34,0.0,0.0,96,0.00,,---,0.00,VWS V14.01,2013-09-17 11:46:00,
2013-09-17 07:50:00,47.5,46.4,30.34,NE,39,0.0,0.0,96,0.00,,---,0.00,VWS V14.01,2013-09-17 11:50:00,
2013-09-17 07:51:00,47.5,46.4,30.34,NNE,30,0.0,1.0,96,0.00,,---,0.00,VWS V14.01,2013-09-17 11:51:00,
2013-09-17 07:56:00,47.4,46.3,30.34,SE,129,0.0,1.0,96,0.00,,---,0.00,VWS V14.01,2013-09-17 11:56:00,
2013-09-17 08:00:00,47.4,46.3,30.34,SE,129,0.0,1.0,96,0.00,,---,0.00,VWS V14.01,2013-09-17 12:00:00,
2013-09-17 08:01:00,47.5,46.4,30.34,SE,129,0.0,0.0,96,0.00,,---,0.00,VWS V14.01,2013-09-17 12:01:00,
2013-09-17 08:06:00,47.5,46.4,30.34,SE,126,0.0,0.0,96,0.00,,---,0.00,VWS V14.01,2013-09-17 12:06:00,
2013-09-17 08:10:00,47.5,46.4,30.35,SE,125,0.0,0.0,96,0.00,,---,0.00,VWS V14.01,2013-09-17 12:10:00,
2013-09-17 08:11:00,47.5,46.4,30.35,SE,126,0.0,0.0,96,0.00,,---,0.00,VWS V14.01,2013-09-17 12:11:00,
2013-09-17 08:16:00,47.8,46.7,30.35,SE,129,0.0,0.0,96,0.00,,---,0.00,VWS V14.01,2013-09-17 12:16:00,
2013-09-17 08:20:00,47.8,46.7,30.35,WSW,252,0.0,0.0,96,0.00,,---,0.00,VWS V14.01,2013-09-17 12:20:00,
2013-09-17 08:21:00,47.8,46.7,30.35,NNE,17,0.0,0.0,96,0.00,,---,0.00,VWS V14.01,2013-09-17 12:21:00,
2013-09-17 08:26:00,47.9,46.8,30.35,NW,321,0.0,1.0,96,0.00,,---,0.00,VWS V14.01,2013-09-17 12:26:00,
2013-09-17 08:30:00,48.0,46.9,30.35,NW,321,0.0,1.0,96,0.00,,---,0.00,VWS V14.01,2013-09-17 12:30:00,
2013-09-17 08:31:00,48.0,46.9,30.35,NNW,344,0.0,1.0,96,0.00,,---,0.00,VWS V14.01,2013-09-17 12:31:00,
2013-09-17 08:36:00,48.0,46.9,30.35,North,355,0.0,1.0,96,0.00,,---,0.00,VWS V14.01,2013-09-17 12:36:00,
2013-09-17 08:40:00,48.1,47.0,30.35,NE,44,0.0,1.0,96,0.00,,---,0.00,VWS V14.01,2013-09-17 12:40:00,
2013-09-17 08:41:00,48.1,47.0,30.35,NNE,27,0.0,1.0,96,0.00,,---,0.00,VWS V14.01,2013-09-17 12:41:00,
2013-09-17 08:46:00,48.1,47.0,30.35,North,11,0.0,1.0,96,0.00,,---,0.00,VWS V14.01,2013-09-17 12:46:00,
2013-09-17 08:50:00,48.2,47.1,30.35,ESE,120,0.0,1.0,96,0.00,,---,0.00,VWS V14.01,2013-09-17 12:50:00,
2013-09-17 08:51:00,48.2,47.1,30.35,ESE,120,0.0,0.0,96,0.00,,---,0.00,VWS V14.01,2013-09-17 12:51:00,
2013-09-17 08:56:00,48.4,47.3,30.35,NNE,31,1.0,2.0,96,0.00,,---,0.00,VWS V14.01,2013-09-17 12:56:00,
2013-09-17 09:00:00,48.4,47.3,30.35,NE,49,1.0,3.0,96,0.00,,---,0.00,VWS V14.01,2013-09-17 13:00:00,
2013-09-17 09:01:00,48.3,47.2,30.35,NNE,27,0.0,2.0,96,0.00,,---,0.00,VWS V14.01,2013-09-17 13:01:00,
2013-09-17 09:06:00,48.7,47.6,30.35,NNE,19,0.0,2.0,96,0.00,,---,0.00,VWS V14.01,2013-09-17 13:06:00,
2013-09-17 09:10:00,48.8,47.7,30.35,North,351,0.0,2.0,96,0.00,,---,0.00,VWS V14.01,2013-09-17 13:10:00,
2013-09-17 09:11:00,48.9,47.8,30.36,NNE,23,0.0,0.0,96,0.00,,---,0.00,VWS V14.01,2013-09-17 13:11:00,
2013-09-17 09:16:00,49.1,48.0,30.36,NE,39,0.0,1.0,96,0.00,,---,0.00,VWS V14.01,2013-09-17 13:16:00,
2013-09-17 09:20:00,49.3,48.2,30.36,NNE,16,0.0,1.0,96,0.00,,---,0.00,VWS V14.01,2013-09-17 13:20:00,
2013-09-17 09:21:00,49.5,48.4,30.36,NNE,27,0.0,1.0,96,0.00,,---,0.00,VWS V14.01,2013-09-17 13:21:00,
2013-09-17 09:26:00,49.7,48.6,30.36,NE,34,0.0,2.0,96,0.00,,---,0.00,VWS V14.01,2013-09-17 13:26:00,
2013-09-17 09:30:00,50.0,48.9,30.36,NNE,12,0.0,2.0,96,0.00,,---,0.00,VWS V14.01,2013-09-17 13:30:00,
2013-09-17 09:31:00,50.3,49.2,30.36,NNE,33,0.0,1.0,96,0.00,,---,0.00,VWS V14.01,2013-09-17 13:31:00,
2013-09-17 09:36:00,50.3,49.2,30.36,NNE,20,1.0,4.0,96,0.00,,---,0.00,VWS V14.01,2013-09-17 13:36:00,
2013-09-17 09:40:00,50.3,49.2,30.36,NW,319,0.0,4.0,96,0.00,,---,0.00,VWS V14.01,2013-09-17 13:40:00,
2013-09-17 09:41:00,50.4,49.3,30.36,NW,317,0.0,2.0,96,0.00,,---,0.00,VWS V14.01,2013-09-17 13:41:00,
2013-09-17 09:46:00,50.6,49.5,30.36,NNW,342,0.0,2.0,96,0.00,,---,0.00,VWS V14.01,2013-09-17 13:46:00,
2013-09-17 09:50:00,50.7,49.6,30.36,NNW,342,0.0,2.0,96,0.00,,---,0.00,VWS V14.01,2013-09-17 13:50:00,
2013-09-17 09:51:00,50.9,49.8,30.36,WNW,299,0.0,0.0,96,0.00,,---,0.00,VWS V14.01,2013-09-17 13:51:00,
2013-09-17 09:56:00,51.7,50.6,30.36,WSW,246,0.0,2.0,96,0.00,,---,0.00,VWS V14.01,2013-09-17 13:56:00,
2013-09-17 10:00:00,52.1,51.0,30.36,North,351,1.0,2.0,96,0.00,,---,0.00,VWS V14.01,2013-09-17 14:00:00,
2013-09-17 10:02:00,52.6,51.5,30.36,NE,34,0.0,1.0,96,0.00,,---,0.00,VWS V14.01,2013-09-17 14:02:00,
2013-09-17 10:07:00,53.6,52.2,30.36,NW,317,0.0,1.0,95,0.00,,---,0.00,VWS V14.01,2013-09-17 14:07:00,
2013-09-17 10:10:00,53.9,52.5,30.36,NNE,32,0.0,1.0,95,0.00,,---,0.00,VWS V14.01,2013-09-17 14:10:00,
2013-09-17 10:12:00,54.5,52.2,30.36,North,5,1.0,2.0,92,0.00,,---,0.00,VWS V14.01,2013-09-17 14:12:00,
2013-09-17 10:17:00,55.3,52.7,30.36,ESE,118,0.0,2.0,91,0.00,,---,0.00,VWS V14.01,2013-09-17 14:17:00,
2013-09-17 10:20:00,55.6,53.0,30.36,NNW,342,0.0,2.0,91,0.00,,---,0.00,VWS V14.01,2013-09-17 14:20:00,
2013-09-17 10:22:00,55.9,52.1,30.36,WSW,256,0.0,3.0,87,0.00,,---,0.00,VWS V14.01,2013-09-17 14:22:00,
2013-09-17 10:27:00,56.5,52.7,30.36,NW,320,0.0,3.0,87,0.00,,---,0.00,VWS V14.01,2013-09-17 14:27:00,
2013-09-17 10:30:00,56.7,52.9,30.35,ESE,111,1.0,3.0,87,0.00,,---,0.00,VWS V14.01,2013-09-17 14:30:00,
2013-09-17 10:32:00,57.3,53.2,30.35,ESE,118,1.0,3.0,86,0.00,,---,0.00,VWS V14.01,2013-09-17 14:32:00,
2013-09-17 10:37:00,58.1,53.0,30.36,NNE,31,0.0,3.0,83,0.00,,---,0.00,VWS V14.01,2013-09-17 14:37:00,
2013-09-17 10:40:00,58.2,53.1,30.36,NNW,327,0.0,3.0,83,0.00,,---,0.00,VWS V14.01,2013-09-17 14:40:00,
2013-09-17 10:42:00,58.6,53.5,30.36,NNE,13,1.0,2.0,83,0.00,,---,0.00,VWS V14.01,2013-09-17 14:42:00,
2013-09-17 10:50:00,50.7,49.6,30.36,NNW,342,0.0,2.0,96,0.00,,---,0.00,VWS V14.01,2013-09-17 14:50:00,
2013-09-17 10:52:00,60.1,53.9,30.35,ESE,123,0.0,0.0,80,0.00,,---,0.00,VWS V14.01,2013-09-17 14:52:00,
2013-09-17 10:57:00,60.5,53.6,30.35,North,360,1.0,2.0,78,0.00,,---,0.00,VWS V14.01,2013-09-17 14:57:00,
2013-09-17 11:00:00,60.4,53.2,30.35,North,355,0.0,2.0,77,0.00,,---,0.00,VWS V14.01,2013-09-17 15:00:00,
2013-09-17 11:02:00,60.4,53.2,30.35,SSW,209,0.0,4.0,77,0.00,,---,0.00,VWS V14.01,2013-09-17 15:02:00,
2013-09-17 11:07:00,61.2,53.6,30.35,South,173,2.0,4.0,76,0.00,,---,0.00,VWS V14.01,2013-09-17 15:07:00,
2013-09-17 11:10:00,61.3,54.0,30.35,SSE,150,4.0,6.0,77,0.00,,---,0.00,VWS V14.01,2013-09-17 15:10:00,
2013-09-17 11:12:00,61.5,53.9,30.35,South,176,0.0,5.0,76,0.00,,---,0.00,VWS V14.01,2013-09-17 15:12:00,
2013-09-17 11:17:00,61.7,54.1,30.34,SW,215,0.0,5.0,76,0.00,,---,0.00,VWS V14.01,2013-09-17 15:17:00,
2013-09-17 11:20:00,61.9,54.6,30.34,NE,35,0.0,5.0,77,0.00,,---,0.00,VWS V14.01,2013-09-17 15:20:00,
2013-09-17 11:22:00,62.3,54.3,30.34,ESE,113,2.0,4.0,75,0.00,,---,0.00,VWS V14.01,2013-09-17 15:22:00,
2013-09-17 11:27:00,62.1,54.5,30.34,SE,136,1.0,4.0,76,0.00,,---,0.00,VWS V14.01,2013-09-17 15:27:00,
2013-09-17 11:30:00,62.2,54.5,30.34,ESE,107,1.0,4.0,76,0.00,,---,0.00,VWS V14.01,2013-09-17 15:30:00,
2013-09-17 11:32:00,62.3,53.9,30.34,SSE,166,2.0,4.0,74,0.00,,---,0.00,VWS V14.01,2013-09-17 15:32:00,
2013-09-17 11:37:00,62.5,53.7,30.34,ESE,103,0.0,5.0,73,0.00,,---,0.00,VWS V14.01,2013-09-17 15:37:00,
2013-09-17 11:40:00,62.6,54.2,30.34,SE,139,4.0,5.0,74,0.00,,---,0.00,VWS V14.01,2013-09-17 15:40:00,
2013-09-17 11:42:00,62.9,53.8,30.34,SE,130,2.0,5.0,72,0.00,,---,0.00,VWS V14.01,2013-09-17 15:42:00,
2013-09-17 11:47:00,63.4,53.8,30.34,NNE,27,1.0,5.0,71,0.00,,---,0.00,VWS V14.01,2013-09-17 15:47:00,
2013-09-17 11:50:00,63.5,53.9,30.34,WNW,288,0.0,5.0,71,0.00,,---,0.00,VWS V14.01,2013-09-17 15:50:00,
2013-09-17 11:52:00,63.9,53.9,30.33,North,5,1.0,4.0,70,0.00,,---,0.00,VWS V14.01,2013-09-17 15:52:00,
2013-09-17 11:57:00,64.4,54.4,30.33,ESE,113,0.0,4.0,70,0.00,,---,0.00,VWS V14.01,2013-09-17 15:57:00,
2013-09-17 12:00:00,64.5,54.1,30.33,NNE,29,0.0,4.0,69,0.00,,---,0.00,VWS V14.01,2013-09-17 16:00:00,
2013-09-17 12:02:00,65.2,54.0,30.33,NNE,17,0.0,5.0,67,0.00,,---,0.00,VWS V14.01,2013-09-17 16:02:00,
2013-09-17 12:07:00,65.4,54.2,30.33,ESE,116,0.0,6.0,67,0.00,,---,0.00,VWS V14.01,2013-09-17 16:07:00,
2013-09-17 12:10:00,65.5,54.3,30.33,East,89,2.0,6.0,67,0.00,,---,0.00,VWS V14.01,2013-09-17 16:10:00,
2013-09-17 12:12:00,65.6,54.4,30.33,NNE,22,2.0,4.0,67,0.00,,---,0.00,VWS V14.01,2013-09-17 16:12:00,
2013-09-17 12:17:00,65.4,53.8,30.33,WSW,250,0.0,6.0,66,0.00,,---,0.00,VWS V14.01,2013-09-17 16:17:00,
2013-09-17 12:20:00,65.4,53.8,30.33,NE,36,1.0,6.0,66,0.00,,---,0.00,VWS V14.01,2013-09-17 16:20:00,
2013-09-17 12:22:00,65.5,53.4,30.32,NNW,327,0.0,5.0,65,0.00,,---,0.00,VWS V14.01,2013-09-17 16:22:00,
2013-09-17 12:27:00,65.6,54.0,30.32,NE,46,0.0,8.0,66,0.00,,---,0.00,VWS V14.01,2013-09-17 16:27:00,
2013-09-17 12:30:00,65.7,53.6,30.32,NNE,19,0.0,8.0,65,0.00,,---,0.00,VWS V14.01,2013-09-17 16:30:00,
2013-09-17 12:32:00,66.1,52.7,30.32,East,81,0.0,5.0,62,0.00,,---,0.00,VWS V14.01,2013-09-17 16:32:00,
2013-09-17 12:37:00,66.2,53.2,30.32,SE,136,1.0,5.0,63,0.00,,---,0.00,VWS V14.01,2013-09-17 16:37:00,
2013-09-17 12:40:00,66.2,54.1,30.32,SE,128,0.0,5.0,65,0.00,,---,0.00,VWS V14.01,2013-09-17 16:40:00,
2013-09-17 12:42:00,66.5,53.1,30.32,SE,127,0.0,2.0,62,0.00,,---,0.00,VWS V14.01,2013-09-17 16:42:00,
2013-09-17 12:48:00,66.6,52.8,30.32,SE,145,0.0,3.0,61,0.00,,---,0.00,VWS V14.01,2013-09-17 16:48:00,
2013-09-17 12:50:00,66.7,54.2,30.32,NNW,340,2.0,3.0,64,0.00,,---,0.00,VWS V14.01,2013-09-17 16:50:00,
2013-09-17 12:53:00,66.7,51.9,30.32,NNE,12,2.0,6.0,59,0.00,,---,0.00,VWS V14.01,2013-09-17 16:53:00,
2013-09-17 12:58:00,66.6,51.4,30.32,NE,50,0.0,6.0,58,0.00,,---,0.00,VWS V14.01,2013-09-17 16:58:00,
2013-09-17 13:00:00,66.7,51.5,30.32,ENE,58,3.0,6.0,58,0.00,,---,0.00,VWS V14.01,2013-09-17 17:00:00,
2013-09-17 13:03:00,66.5,51.8,30.32,ESE,118,1.0,7.0,59,0.00,,---,0.00,VWS V14.01,2013-09-17 17:03:00,
2013-09-17 13:08:00,66.8,52.9,30.32,SSW,207,0.0,7.0,61,0.00,,---,0.00,VWS V14.01,2013-09-17 17:08:00,
2013-09-17 13:10:00,66.9,53.0,30.32,NNW,331,0.0,7.0,61,0.00,,---,0.00,VWS V14.01,2013-09-17 17:10:00,
2013-09-17 13:13:00,67.4,52.6,30.31,NNW,344,2.0,5.0,59,0.00,,---,0.00,VWS V14.01,2013-09-17 17:13:00,
2013-09-17 13:18:00,67.4,53.9,30.31,ESE,112,0.0,6.0,62,0.00,,---,0.00,VWS V14.01,2013-09-17 17:18:00,
2013-09-17 13:20:00,67.4,53.0,30.31,ESE,111,0.0,6.0,60,0.00,,---,0.00,VWS V14.01,2013-09-17 17:20:00,
2013-09-17 13:23:00,67.8,53.0,30.31,SE,128,1.0,6.0,59,0.00,,---,0.00,VWS V14.01,2013-09-17 17:23:00,
2013-09-17 13:28:00,67.4,52.1,30.31,ESE,117,5.0,8.0,58,0.00,,---,0.00,VWS V14.01,2013-09-17 17:28:00,
2013-09-17 13:30:00,67.5,52.2,30.31,SE,141,4.0,8.0,58,0.00,,---,0.00,VWS V14.01,2013-09-17 17:30:00,
2013-09-17 13:33:00,67.2,53.3,30.31,South,191,3.0,5.0,61,0.00,,---,0.00,VWS V14.01,2013-09-17 17:33:00,
2013-09-17 13:38:00,67.5,52.2,30.31,SSE,155,2.0,5.0,58,0.00,,---,0.00,VWS V14.01,2013-09-17 17:38:00,
2013-09-17 13:40:00,67.6,52.3,30.31,South,171,2.0,5.0,58,0.00,,---,0.00,VWS V14.01,2013-09-17 17:40:00,
2013-09-17 13:43:00,67.9,53.1,30.30,ENE,66,0.0,7.0,59,0.00,,---,0.00,VWS V14.01,2013-09-17 17:43:00,
2013-09-17 13:48:00,67.8,52.0,30.30,SE,136,0.0,7.0,57,0.00,,---,0.00,VWS V14.01,2013-09-17 17:48:00,
2013-09-17 13:50:00,67.8,52.0,30.30,ESE,123,0.0,7.0,57,0.00,,---,0.00,VWS V14.01,2013-09-17 17:50:00,
2013-09-17 13:53:00,67.7,51.9,30.30,NNE,30,2.0,5.0,57,0.00,,---,0.00,VWS V14.01,2013-09-17 17:53:00,
2013-09-17 13:58:00,68.0,52.2,30.29,NE,44,6.0,8.0,57,0.00,,---,0.00,VWS V14.01,2013-09-17 17:58:00,
2013-09-17 14:00:00,68.0,51.2,30.29,NE,55,5.0,8.0,55,0.00,,---,0.00,VWS V14.01,2013-09-17 18:00:00,
2013-09-17 14:03:00,67.8,51.5,30.29,ESE,121,0.0,5.0,56,0.00,,---,0.00,VWS V14.01,2013-09-17 18:03:00,
2013-09-17 14:08:00,68.3,51.5,30.29,NNW,342,0.0,5.0,55,0.00,,---,0.00,VWS V14.01,2013-09-17 18:08:00,
2013-09-17 14:10:00,68.3,51.5,30.29,NNW,342,0.0,5.0,55,0.00,,---,0.00,VWS V14.01,2013-09-17 18:10:00,
2013-09-17 14:13:00,68.6,51.8,30.29,NNW,338,5.0,8.0,55,0.00,,---,0.00,VWS V14.01,2013-09-17 18:13:00,
2013-09-17 14:18:00,68.8,52.5,30.29,WNW,286,2.0,8.0,56,0.00,,---,0.00,VWS V14.01,2013-09-17 18:18:00,
2013-09-17 14:20:00,68.8,52.5,30.29,WNW,286,2.0,8.0,56,0.00,,---,0.00,VWS V14.01,2013-09-17 18:20:00,
2013-09-17 14:23:00,68.8,51.5,30.28,NNW,330,3.0,6.0,54,0.00,,---,0.00,VWS V14.01,2013-09-17 18:23:00,
2013-09-17 14:28:00,68.9,52.1,30.28,NNW,337,3.0,7.0,55,0.00,,---,0.00,VWS V14.01,2013-09-17 18:28:00,
2013-09-17 14:30:00,68.9,52.1,30.28,NNW,337,3.0,7.0,55,0.00,,---,0.00,VWS V14.01,2013-09-17 18:30:00,
2013-09-17 14:33:00,68.8,52.0,30.28,NNW,340,0.0,6.0,55,0.00,,---,0.00,VWS V14.01,2013-09-17 18:33:00,
2013-09-17 14:38:00,69.0,52.2,30.28,NE,38,2.0,2.0,55,0.00,,---,0.00,VWS V14.01,2013-09-17 18:38:00,
2013-09-17 14:40:00,69.0,52.2,30.28,NNE,12,2.0,6.0,55,0.00,,---,0.00,VWS V14.01,2013-09-17 18:40:00,
2013-09-17 14:43:00,69.5,50.1,30.28,NW,311,0.0,5.0,50,0.00,,---,0.00,VWS V14.01,2013-09-17 18:43:00,
2013-09-17 14:48:00,69.7,48.6,30.27,NE,46,0.0,0.0,47,0.00,,---,0.00,VWS V14.01,2013-09-17 18:48:00,
2013-09-17 14:50:00,69.7,48.6,30.27,NE,46,0.0,7.0,47,0.00,,---,0.00,VWS V14.01,2013-09-17 18:50:00,
2013-09-17 14:53:00,70.1,49.0,30.27,NE,34,3.0,5.0,47,0.00,,---,0.00,VWS V14.01,2013-09-17 18:53:00,
2013-09-17 14:58:00,70.4,48.1,30.27,East,98,0.0,0.0,45,0.00,,---,0.00,VWS V14.01,2013-09-17 18:58:00,
2013-09-17 15:00:00,70.4,48.1,30.27,East,98,0.0,7.0,45,0.00,,---,0.00,VWS V14.01,2013-09-17 19:00:00,
2013-09-17 15:03:00,70.7,51.7,30.27,ESE,110,4.0,7.0,51,0.00,,---,0.00,VWS V14.01,2013-09-17 19:03:00,
2013-09-17 15:08:00,70.5,50.4,30.27,SSW,192,0.0,0.0,49,0.00,,---,0.00,VWS V14.01,2013-09-17 19:08:00,
2013-09-17 15:10:00,70.5,50.4,30.27,SSW,196,0.0,9.0,49,0.00,,---,0.00,VWS V14.01,2013-09-17 19:10:00,
2013-09-17 15:13:00,71.2,51.6,30.27,East,93,0.0,2.0,50,0.00,,---,0.00,VWS V14.01,2013-09-17 19:13:00,
2013-09-17 15:18:00,71.6,49.8,30.26,NE,40,1.0,1.0,46,0.00,,---,0.00,VWS V14.01,2013-09-17 19:18:00,
2013-09-17 15:20:00,71.6,49.8,30.26,NNW,331,1.0,5.0,46,0.00,,---,0.00,VWS V14.01,2013-09-17 19:20:00,
2013-09-17 15:23:00,71.1,49.9,30.26,NE,44,2.0,7.0,47,0.00,,---,0.00,VWS V14.01,2013-09-17 19:23:00,
2013-09-17 15:28:00,71.0,49.8,30.26,NNW,346,4.0,6.0,47,0.00,,---,0.00,VWS V14.01,2013-09-17 19:28:00,
2013-09-17 15:30:00,71.1,49.9,30.26,North,5,6.0,8.0,47,0.00,,---,0.00,VWS V14.01,2013-09-17 19:30:00,
2013-09-17 15:33:00,70.9,49.7,30.26,NE,46,0.0,10.0,47,0.00,,---,0.00,VWS V14.01,2013-09-17 19:33:00,
2013-09-17 15:38:00,71.3,51.2,30.26,SSE,149,6.0,6.0,49,0.00,,---,0.00,VWS V14.01,2013-09-17 19:38:00,
2013-09-17 15:40:00,71.3,51.2,30.26,SE,145,4.0,10.0,49,0.00,,---,0.00,VWS V14.01,2013-09-17 19:40:00,
2013-09-17 15:45:00,70.9,49.7,30.26,North,11,0.0,6.0,47,0.00,,---,0.00,VWS V14.01,2013-09-17 19:45:00,
2013-09-17 15:50:00,71.2,51.1,30.26,South,190,0.0,1.0,49,0.00,,---,0.00,VWS V14.01,2013-09-17 19:50:00,
2013-09-17 15:55:00,71.4,49.0,30.26,NE,53,0.0,3.0,45,0.00,,---,0.00,VWS V14.01,2013-09-17 19:55:00,
2013-09-17 16:00:00,71.8,50.5,30.25,NNW,333,2.0,2.0,47,0.00,,---,0.00,VWS V14.01,2013-09-17 20:00:00,
2013-09-17 16:05:00,71.4,51.3,30.25,WSW,244,0.0,5.0,49,0.00,,---,0.00,VWS V14.01,2013-09-17 20:05:00,
2013-09-17 16:10:00,71.5,49.1,30.25,ENE,57,4.0,9.0,45,0.00,,---,0.00,VWS V14.01,2013-09-17 20:10:00,
2013-09-17 16:15:00,71.3,48.3,30.25,SE,142,2.0,9.0,44,0.00,,---,0.00,VWS V14.01,2013-09-17 20:15:00,
2013-09-17 16:20:00,71.2,47.6,30.25,East,96,2.0,5.0,43,0.00,,---,0.00,VWS V14.01,2013-09-17 20:20:00,
2013-09-17 16:25:00,71.8,45.5,30.24,SE,142,0.0,6.0,39,0.00,,---,0.00,VWS V14.01,2013-09-17 20:25:00,
2013-09-17 16:30:00,72.0,47.0,30.24,East,84,0.0,4.0,41,0.00,,---,0.00,VWS V14.01,2013-09-17 20:30:00,
2013-09-17 16:35:00,71.7,45.5,30.24,SSE,153,2.0,7.0,39,0.00,,---,0.00,VWS V14.01,2013-09-17 20:35:00,
2013-09-17 16:40:00,71.4,47.8,30.24,SSE,148,5.0,8.0,43,0.00,,---,0.00,VWS V14.01,2013-09-17 20:40:00,
2013-09-17 16:45:00,71.4,45.8,30.24,South,169,6.0,8.0,40,0.00,,---,0.00,VWS V14.01,2013-09-17 20:45:00,
2013-09-17 16:50:00,71.2,45.0,30.24,ESE,109,0.0,4.0,39,0.00,,---,0.00,VWS V14.01,2013-09-17 20:50:00,
2013-09-17 16:55:00,71.4,47.8,30.24,South,173,1.0,6.0,43,0.00,,---,0.00,VWS V14.01,2013-09-17 20:55:00,
2013-09-17 17:00:00,71.5,47.8,30.24,SE,130,1.0,2.0,43,0.00,,---,0.00,VWS V14.01,2013-09-17 21:00:00,
2013-09-17 17:05:00,71.6,48.6,30.24,ESE,121,0.0,5.0,44,0.00,,---,0.00,VWS V14.01,2013-09-17 21:05:00,
2013-09-17 17:10:00,71.2,47.6,30.24,SE,145,4.0,6.0,43,0.00,,---,0.00,VWS V14.01,2013-09-17 21:10:00,
2013-09-17 17:15:00,70.9,47.3,30.24,ESE,123,5.0,7.0,43,0.00,,---,0.00,VWS V14.01,2013-09-17 21:15:00,
2013-09-17 17:20:00,71.1,48.7,30.24,ENE,61,0.0,4.0,45,0.00,,---,0.00,VWS V14.01,2013-09-17 21:20:00,
2013-09-17 17:25:00,71.1,46.9,30.24,ESE,103,1.0,4.0,42,0.00,,---,0.00,VWS V14.01,2013-09-17 21:25:00,
2013-09-17 17:30:00,71.2,48.2,30.24,SSE,154,4.0,4.0,44,0.00,,---,0.00,VWS V14.01,2013-09-17 21:30:00,
2013-09-17 17:35:00,70.7,44.5,30.24,SSE,153,5.0,10.0,39,0.00,,---,0.00,VWS V14.01,2013-09-17 21:35:00,
2013-09-17 17:40:00,70.2,47.3,30.24,SSE,153,0.0,1.0,44,0.00,,---,0.00,VWS V14.01,2013-09-17 21:40:00,
2013-09-17 17:45:00,70.3,48.0,30.24,SE,138,0.0,4.0,45,0.00,,---,0.00,VWS V14.01,2013-09-17 21:45:00,
2013-09-17 17:50:00,70.3,47.4,30.24,ESE,111,1.0,5.0,44,0.00,,---,0.00,VWS V14.01,2013-09-17 21:50:00,
2013-09-17 17:55:00,70.0,46.5,30.23,SSE,161,6.0,8.0,43,0.00,,---,0.00,VWS V14.01,2013-09-17 21:55:00,
2013-09-17 18:00:00,69.6,47.3,30.23,SSE,159,2.0,6.0,45,0.00,,---,0.00,VWS V14.01,2013-09-17 22:00:00,
2013-09-17 18:05:00,69.4,47.7,30.23,ESE,113,4.0,7.0,46,0.00,,---,0.00,VWS V14.01,2013-09-17 22:05:00,
2013-09-17 18:10:00,69.4,48.3,30.23,SE,126,5.0,7.0,47,0.00,,---,0.00,VWS V14.01,2013-09-17 22:10:00,
2013-09-17 18:15:00,69.5,48.4,30.23,SE,140,1.0,7.0,47,0.00,,---,0.00,VWS V14.01,2013-09-17 22:15:00,
2013-09-17 18:20:00,69.5,49.0,30.23,ESE,123,0.0,4.0,48,0.00,,---,0.00,VWS V14.01,2013-09-17 22:20:00,
2013-09-17 18:25:00,69.7,49.7,30.23,East,89,0.0,4.0,49,0.00,,---,0.00,VWS V14.01,2013-09-17 22:25:00,
2013-09-17 18:30:00,69.1,48.6,30.23,ESE,119,5.0,5.0,48,0.00,,---,0.00,VWS V14.01,2013-09-17 22:30:00,
2013-09-17 18:35:00,68.4,48.5,30.23,East,94,1.0,7.0,49,0.00,,---,0.00,VWS V14.01,2013-09-17 22:35:00,
2013-09-17 18:40:00,68.0,48.2,30.23,SE,135,1.0,4.0,49,0.00,,---,0.00,VWS V14.01,2013-09-17 22:40:00,
2013-09-17 18:45:00,67.6,48.3,30.23,SE,132,0.0,4.0,50,0.00,,---,0.00,VWS V14.01,2013-09-17 22:45:00,
2013-09-17 18:50:00,67.3,48.6,30.23,SE,126,0.0,4.0,51,0.00,,---,0.00,VWS V14.01,2013-09-17 22:50:00,
2013-09-17 18:55:00,66.8,48.6,30.23,SE,134,0.0,4.0,52,0.00,,---,0.00,VWS V14.01,2013-09-17 22:55:00,
2013-09-17 19:00:00,66.6,49.0,30.23,SE,135,4.0,4.0,53,0.00,,---,0.00,VWS V14.01,2013-09-17 23:00:00,
2013-09-17 19:01:00,66.4,48.8,30.23,SSE,148,2.0,4.0,53,0.00,,---,0.00,VWS V14.01,2013-09-17 23:01:00,
2013-09-17 19:06:00,65.9,47.8,30.23,SE,144,5.0,5.0,52,0.00,,---,0.00,VWS V14.01,2013-09-17 23:06:00,
2013-09-17 19:10:00,65.7,48.1,30.23,SSE,152,2.0,5.0,53,0.00,,---,0.00,VWS V14.01,2013-09-17 23:10:00,
2013-09-17 19:11:00,65.4,47.8,30.23,SE,139,4.0,4.0,53,0.00,,---,0.00,VWS V14.01,2013-09-17 23:11:00,
2013-09-17 19:16:00,64.9,47.4,30.23,SE,144,2.0,6.0,53,0.00,,---,0.00,VWS V14.01,2013-09-17 23:16:00,
2013-09-17 19:20:00,64.8,47.3,30.23,ESE,118,0.0,6.0,53,0.00,,---,0.00,VWS V14.01,2013-09-17 23:20:00,
2013-09-17 19:21:00,64.6,47.6,30.23,SSE,148,2.0,4.0,54,0.00,,---,0.00,VWS V14.01,2013-09-17 23:21:00,
2013-09-17 19:26:00,64.3,47.3,30.23,SE,146,1.0,6.0,54,0.00,,---,0.00,VWS V14.01,2013-09-17 23:26:00,
2013-09-17 19:30:00,64.1,47.1,30.23,SE,134,1.0,6.0,54,0.00,,---,0.00,VWS V14.01,2013-09-17 23:30:00,
2013-09-17 19:31:00,64.0,47.0,30.23,ESE,111,0.0,4.0,54,0.00,,---,0.00,VWS V14.01,2013-09-17 23:31:00,
2013-09-17 19:36:00,63.6,47.2,30.23,ESE,116,0.0,4.0,55,0.00,,---,0.00,VWS V14.01,2013-09-17 23:36:00,
2013-09-17 19:40:00,63.5,46.6,30.23,ESE,110,1.0,5.0,54,0.00,,---,0.00,VWS V14.01,2013-09-17 23:40:00,
2013-09-17 19:41:00,63.5,47.1,30.23,ENE,67,0.0,6.0,55,0.00,,---,0.00,VWS V14.01,2013-09-17 23:41:00,
2013-09-17 19:46:00,63.2,46.8,30.23,ESE,118,0.0,6.0,55,0.00,,---,0.00,VWS V14.01,2013-09-17 23:46:00,
2013-09-17 19:50:00,63.1,46.7,30.23,SE,133,7.0,9.0,55,0.00,,---,0.00,VWS V14.01,2013-09-17 23:50:00,
2013-09-17 19:51:00,63.1,47.2,30.23,SSE,153,5.0,8.0,56,0.00,,---,0.00,VWS V14.01,2013-09-17 23:51:00,
2013-09-17 19:57:00,62.7,47.3,30.23,SE,142,0.0,8.0,57,0.00,,---,0.00,VWS V14.01,2013-09-17 23:57:00,
2013-09-17 20:00:00,62.6,47.2,30.23,SSE,167,0.0,8.0,57,0.00,,---,0.00,VWS V14.01,2013-09-18 00:00:00,
2013-09-17 20:02:00,62.3,46.9,30.23,ESE,106,5.0,9.0,57,0.00,,---,0.00,VWS V14.01,2013-09-18 00:02:00,
2013-09-17 20:07:00,62.0,47.1,30.23,SSE,157,2.0,9.0,58,0.00,,---,0.00,VWS V14.01,2013-09-18 00:07:00,
2013-09-17 20:10:00,61.9,46.5,30.23,WSW,253,0.0,9.0,57,0.00,,---,0.00,VWS V14.01,2013-09-18 00:10:00,
2013-09-17 20:12:00,61.9,46.5,30.23,SSE,155,5.0,11.0,57,0.00,,---,0.00,VWS V14.01,2013-09-18 00:12:00,
2013-09-17 20:17:00,61.8,46.4,30.23,ESE,115,0.0,11.0,57,0.00,,---,0.00,VWS V14.01,2013-09-18 00:17:00,
2013-09-17 20:20:00,61.8,46.4,30.23,SSW,208,0.0,11.0,57,0.00,,---,0.00,VWS V14.01,2013-09-18 00:20:00,
2013-09-17 20:22:00,61.6,46.7,30.23,SE,128,0.0,4.0,58,0.00,,---,0.00,VWS V14.01,2013-09-18 00:22:00,
2013-09-17 20:27:00,61.1,46.2,30.24,SE,130,5.0,5.0,58,0.00,,---,0.00,VWS V14.01,2013-09-18 00:27:00,
2013-09-17 20:30:00,61.2,46.3,30.23,SE,139,1.0,6.0,58,0.00,,---,0.00,VWS V14.01,2013-09-18 00:30:00,
2013-09-17 20:32:00,61.3,46.4,30.24,SE,139,4.0,9.0,58,0.00,,---,0.00,VWS V14.01,2013-09-18 00:32:00,
2013-09-17 20:37:00,61.2,46.3,30.24,ESE,112,0.0,9.0,58,0.00,,---,0.00,VWS V14.01,2013-09-18 00:37:00,
2013-09-17 20:40:00,61.2,46.3,30.24,SSE,162,4.0,9.0,58,0.00,,---,0.00,VWS V14.01,2013-09-18 00:40:00,
2013-09-17 20:42:00,61.1,45.8,30.23,ESE,109,1.0,6.0,57,0.00,,---,0.00,VWS V14.01,2013-09-18 00:42:00,
2013-09-17 20:47:00,61.1,45.8,30.23,East,101,2.0,9.0,57,0.00,,---,0.00,VWS V14.01,2013-09-18 00:47:00,
2013-09-17 20:50:00,61.1,45.8,30.24,ESE,117,0.0,9.0,57,0.00,,---,0.00,VWS V14.01,2013-09-18 00:50:00,
2013-09-17 20:52:00,60.9,46.0,30.24,SE,141,2.0,2.0,58,0.00,,---,0.00,VWS V14.01,2013-09-18 00:52:00,
2013-09-17 20:57:00,60.7,45.8,30.24,SE,144,4.0,8.0,58,0.00,,---,0.00,VWS V14.01,2013-09-18 00:57:00,
2013-09-17 21:00:00,60.7,46.3,30.24,SSE,149,5.0,8.0,59,0.00,,---,0.00,VWS V14.01,2013-09-18 01:00:00,
2013-09-17 21:02:00,60.6,46.2,30.24,ESE,116,0.0,5.0,59,0.00,,---,0.00,VWS V14.01,2013-09-18 01:02:00,
2013-09-17 21:07:00,60.5,45.7,30.23,South,186,0.0,10.0,58,0.00,,---,0.00,VWS V14.01,2013-09-18 01:07:00,
2013-09-17 21:10:00,60.5,45.7,30.24,NNE,13,2.0,10.0,58,0.00,,---,0.00,VWS V14.01,2013-09-18 01:10:00,
2013-09-17 21:12:00,60.4,45.6,30.24,ESE,119,0.0,4.0,58,0.00,,---,0.00,VWS V14.01,2013-09-18 01:12:00,
2013-09-17 21:17:00,60.4,45.1,30.24,SE,135,0.0,6.0,57,0.00,,---,0.00,VWS V14.01,2013-09-18 01:17:00,
2013-09-17 21:20:00,60.3,45.0,30.24,ENE,76,3.0,6.0,57,0.00,,---,0.00,VWS V14.01,2013-09-18 01:20:00,
2013-09-17 21:22:00,60.3,45.0,30.24,SE,125,2.0,9.0,57,0.00,,---,0.00,VWS V14.01,2013-09-18 01:22:00,
2013-09-17 21:27:00,60.0,44.7,30.24,ESE,116,0.0,9.0,57,0.00,,---,0.00,VWS V14.01,2013-09-18 01:27:00,
2013-09-17 21:30:00,60.0,44.7,30.24,ESE,107,2.0,9.0,57,0.00,,---,0.00,VWS V14.01,2013-09-18 01:30:00,
2013-09-17 21:32:00,59.9,44.7,30.24,SSW,198,3.0,4.0,57,0.00,,---,0.00,VWS V14.01,2013-09-18 01:32:00,
2013-09-17 21:37:00,59.7,44.5,30.24,SE,125,1.0,4.0,57,0.00,,---,0.00,VWS V14.01,2013-09-18 01:37:00,
2013-09-17 21:40:00,59.6,44.4,30.24,ESE,116,0.0,4.0,57,0.00,,---,0.00,VWS V14.01,2013-09-18 01:40:00,
2013-09-17 21:42:00,59.6,44.4,30.23,SE,134,4.0,11.0,57,0.00,,---,0.00,VWS V14.01,2013-09-18 01:42:00,
2013-09-17 21:47:00,59.5,44.3,30.24,ESE,115,1.0,11.0,57,0.00,,---,0.00,VWS V14.01,2013-09-18 01:47:00,
2013-09-17 21:50:00,59.5,44.3,30.24,ESE,120,0.0,11.0,57,0.00,,---,0.00,VWS V14.01,2013-09-18 01:50:00,
2013-09-17 21:52:00,59.3,44.1,30.24,East,85,4.0,8.0,57,0.00,,---,0.00,VWS V14.01,2013-09-18 01:52:00,
2013-09-17 21:57:00,59.3,44.1,30.24,SE,146,4.0,8.0,57,0.00,,---,0.00,VWS V14.01,2013-09-18 01:57:00,
2013-09-17 22:00:00,59.3,44.1,30.24,SSE,155,1.0,8.0,57,0.00,,---,0.00,VWS V14.01,2013-09-18 02:00:00,
2013-09-17 22:02:00,59.2,44.0,30.24,ESE,123,9.0,9.0,57,0.00,,---,0.00,VWS V14.01,2013-09-18 02:02:00,
2013-09-17 22:07:00,59.3,44.1,30.24,South,172,1.0,9.0,57,0.00,,---,0.00,VWS V14.01,2013-09-18 02:07:00,
2013-09-17 22:10:00,59.2,44.0,30.24,ESE,112,0.0,9.0,57,0.00,,---,0.00,VWS V14.01,2013-09-18 02:10:00,
2013-09-17 22:12:00,59.2,44.0,30.24,East,92,0.0,5.0,57,0.00,,---,0.00,VWS V14.01,2013-09-18 02:12:00,
2013-09-17 22:17:00,59.2,43.5,30.24,NNE,20,0.0,9.0,56,0.00,,---,0.00,VWS V14.01,2013-09-18 02:17:00,
2013-09-17 22:20:00,59.2,44.0,30.24,SW,219,0.0,9.0,57,0.00,,---,0.00,VWS V14.01,2013-09-18 02:20:00,
2013-09-17 22:22:00,59.0,43.3,30.24,NE,55,1.0,6.0,56,0.00,,---,0.00,VWS V14.01,2013-09-18 02:22:00,
2013-09-17 22:27:00,59.0,43.3,30.24,SE,140,2.0,7.0,56,0.00,,---,0.00,VWS V14.01,2013-09-18 02:27:00,
2013-09-17 22:30:00,59.0,43.3,30.24,WSW,242,0.0,7.0,56,0.00,,---,0.00,VWS V14.01,2013-09-18 02:30:00,
2013-09-17 22:33:00,58.9,42.8,30.24,ESE,112,2.0,5.0,55,0.00,,---,0.00,VWS V14.01,2013-09-18 02:33:00,
2013-09-17 22:38:00,58.9,42.3,30.23,SE,127,0.0,7.0,54,0.00,,---,0.00,VWS V14.01,2013-09-18 02:38:00,
2013-09-17 22:40:00,58.8,42.2,30.23,SE,135,0.0,7.0,54,0.00,,---,0.00,VWS V14.01,2013-09-18 02:40:00,
2013-09-17 22:43:00,58.9,42.3,30.24,SE,138,7.0,9.0,54,0.00,,---,0.00,VWS V14.01,2013-09-18 02:43:00,
2013-09-17 22:48:00,59.0,41.9,30.23,SSE,160,7.0,13.0,53,0.00,,---,0.00,VWS V14.01,2013-09-18 02:48:00,
2013-09-17 22:50:00,59.0,41.9,30.23,South,186,5.0,13.0,53,0.00,,---,0.00,VWS V14.01,2013-09-18 02:50:00,
2013-09-17 22:53:00,58.8,41.7,30.24,South,174,5.0,7.0,53,0.00,,---,0.00,VWS V14.01,2013-09-18 02:53:00,
2013-09-17 22:58:00,58.8,41.2,30.24,South,190,4.0,13.0,52,0.00,,---,0.00,VWS V14.01,2013-09-18 02:58:00,
2013-09-17 23:00:00,58.8,41.7,30.24,SSE,164,12.0,13.0,53,0.00,,---,0.00,VWS V14.01,2013-09-18 03:00:00,
2013-09-17 23:03:00,58.8,41.2,30.24,SSW,195,3.0,17.0,52,0.00,,---,0.00,VWS V14.01,2013-09-18 03:03:00,
2013-09-17 23:08:00,58.6,41.0,30.24,ESE,120,1.0,17.0,52,0.00,,---,0.00,VWS V14.01,2013-09-18 03:08:00,
2013-09-17 23:10:00,58.6,41.0,30.24,ESE,121,2.0,17.0,52,0.00,,---,0.00,VWS V14.01,2013-09-18 03:10:00,
2013-09-17 23:13:00,58.4,40.9,30.24,South,172,2.0,9.0,52,0.00,,---,0.00,VWS V14.01,2013-09-18 03:13:00,
2013-09-17 23:18:00,58.2,41.2,30.24,South,176,7.0,12.0,53,0.00,,---,0.00,VWS V14.01,2013-09-18 03:18:00,
2013-09-17 23:20:00,58.2,41.2,30.24,SSE,168,5.0,12.0,53,0.00,,---,0.00,VWS V14.01,2013-09-18 03:20:00,
2013-09-17 23:23:00,58.2,41.2,30.24,ESE,121,6.0,16.0,53,0.00,,---,0.00,VWS V14.01,2013-09-18 03:23:00,
2013-09-17 23:28:00,58.1,41.1,30.24,SE,143,5.0,16.0,53,0.00,,---,0.00,VWS V14.01,2013-09-18 03:28:00,
2013-09-17 23:30:00,58.0,41.0,30.24,SSE,153,5.0,16.0,53,0.00,,---,0.00,VWS V14.01,2013-09-18 03:30:00,
2013-09-17 23:33:00,57.9,40.9,30.24,WSW,244,12.0,12.0,53,0.00,,---,0.00,VWS V14.01,2013-09-18 03:33:00,
2013-09-17 23:38:00,58.1,41.1,30.24,SSE,155,6.0,15.0,53,0.00,,---,0.00,VWS V14.01,2013-09-18 03:38:00,
2013-09-17 23:40:00,58.1,41.1,30.24,SSE,156,10.0,15.0,53,0.00,,---,0.00,VWS V14.01,2013-09-18 03:40:00,
2013-09-17 23:43:00,58.2,40.7,30.24,South,171,5.0,11.0,52,0.00,,---,0.00,VWS V14.01,2013-09-18 03:43:00,
2013-09-17 23:48:00,58.0,41.0,30.24,ESE,119,5.0,11.0,53,0.00,,---,0.00,VWS V14.01,2013-09-18 03:48:00,
2013-09-17 23:50:00,58.0,41.0,30.24,SSE,155,5.0,11.0,53,0.00,,---,0.00,VWS V14.01,2013-09-18 03:50:00,
2013-09-17 23:53:00,58.0,40.5,30.24,South,171,8.0,11.0,52,0.00,,---,0.00,VWS V14.01,2013-09-18 03:53:00,
2013-09-17 23:58:00,58.2,40.7,30.23,South,178,7.0,15.0,52,0.00,,---,0.00,VWS V14.01,2013-09-18 03:58:00,